Regional Weather Roundup
Issued by NWS Sterling, VA

Home | Current Version | Previous Version | Text Only | Print | Product List | Glossary Off
Versions: 1 2 3 4 5 6 7 8 9 10 11 12 13 14 15 16 17 18 19 20 21 22 23 24 25 26 27 28 29 30 31 32 33 34 35 36 37 38 39 40 41 42 43 44 45 46 47 48 49 50

000
ASUS41 KLWX 231511
RWRLWX

REGIONAL WEATHER ROUNDUP
NATIONAL WEATHER SERVICE BALTIMORE MD/WASHINGTON DC
1000 AM EST FRI FEB 23 2018

Note: "FAIR" indicates few or no clouds below 12,000 feet
with no significant weather and/or obstructions to visibility.
 TC=TEMPERATURE CELSIUS

 * =Non NWS site. Station does not report precipitation (e.g. rain,
    snow, etc.), thunder, or fog.

DCZ001-MDZ009-015-VAZ040>042-051-053>054-231600-
WASHINGTON METRO

CITY           SKY/WX    TMP DP  RH WIND       PRES   REMARKS
WASHINGTON NAT CLOUDY    42  40  92 E6        30.58F
DULLES         CLOUDY    41  41 100 E5        30.56F FOG
ANDREWS AFB    CLOUDY   N/A N/A N/A E5        30.56S
FT BELVOIR     CLOUDY    41  39  92 NE3       30.56F
QUANTICO       CLOUDY    43  41  93 E5        30.57F
COLLEGE PARK*  CLOUDY    40  38  93 CALM      30.57F
LEESBURG*      FOG       36  36 100 E5        30.57F VSB 1   WCI  32
MANASSAS*      CLOUDY    41  40  96 E3        30.57F
GAITHERSBURG*  CLOUDY    39  38  96 E5        30.56S FOG

$$

MDZ006>007-011-014-231600-
BALTIMORE METRO

CITY           SKY/WX    TMP DP  RH WIND       PRES   REMARKS
BWI AIRPORT    CLOUDY    40  40 100 NE6       30.57S FOG
MD SCIENCE CTR   N/A     42  39  89 MISG      30.60R
MARTIN STATE   CLOUDY    41  41 100 CALM      30.59F FOG
ANNAPOLIS      CLOUDY    43  41  93 NE5       30.57S FOG
FORT MEADE*    CLOUDY    39  37  93 CALM      30.60S

$$

MDZ012-015-019>023-231600-
MARYLAND EASTERN SHORE

CITY           SKY/WX    TMP DP  RH WIND       PRES   REMARKS
OCEAN CITY     LGT RAIN  45  45 100 NE8       30.54F FOG
SALISBURY      CLOUDY    44  44 100 NE8       30.54S FOG
BAY BRIDGE AP* CLOUDY    41  39  93 NE3       30.57F FOG
CAMBRIDGE*     PTSUNNY   43  41  93 E5        30.56F FOG
EASTON*        CLOUDY    43  41  93 E6        30.58F FOG

$$

MDZ017>025-231600-
SOUTHERN MARYLAND

CITY           SKY/WX    TMP DP  RH WIND       PRES   REMARKS
PATUXENT RIVER CLOUDY    42  42 100 NE6       30.56F FOG
ST INIGOES     NOT AVBL
LEONARDTOWN*   CLOUDY    41  41 100 CALM      30.57F

$$

MDZ003>005-231600-
NORTH CENTRAL MARYLAND

CITY           SKY/WX    TMP DP  RH WIND       PRES   REMARKS
FREDERICK*     CLOUDY    43  43 100 SE3       30.59F
HAGERSTOWN APT CLOUDY    42  39  89 SE9       30.51F
WESTMINSTER*   CLOUDY    39  39 100 SE9       30.53F FOG     WCI  33

$$

MDZ501>502-231600-
WESTERN MARYLAND

CITY           SKY/WX    TMP DP  RH WIND       PRES   REMARKS
OAKLAND*       CLOUDY    36  36 100 SE15      30.35S VSB<1/4 WCI  26
CUMBERLAND*    CLOUDY    41  41 100 SE6       30.51F

$$

VAZ025>031-231600-
SHENANDOAH VALLEY

CITY           SKY/WX    TMP DP  RH WIND       PRES   REMARKS
WINCHESTER*    CLOUDY    39  37  93 SE10      30.52F WCI  32
FRONT ROYAL*   CLOUDY    43  41  93 CALM      30.49F
LURAY*         CLOUDY    43  43 100 CALM      30.49F FOG
NEW MARKET*    CLOUDY    42  41  96 CALM      30.48F
STAUNTON*      CLOUDY    43  41  94 S5        30.50F
WAYNESBORO*    CLOUDY    41  40  99 E8        30.48F

$$

WVZ021-048>050-054>055-231600-
EASTERN WEST VIRGINIA PANHANDLE

CITY           SKY/WX    TMP DP  RH WIND       PRES   REMARKS
MARTINSBURG    CLOUDY    40  38  93 SE6       30.51F
PETERSBURG*    CLOUDY    43  40  91 CALM      30.45F

$$

VAZ036>039-050-231600-
CENTRAL FOOTHILLS

CITY           SKY/WX    TMP DP  RH WIND       PRES   REMARKS
CHARLOTTESVILL CLOUDY    44  41  89 CALM      30.53F FOG
CULPEPER*      CLOUDY    43  40  88 CALM      30.56F
ORANGE*        CLOUDY    41  39  93 CALM      30.55F FOG
GORDONSVILLE*  CLOUDY    42  42 100 CALM      30.54F
WARRENTON*     CLOUDY    43  39  85 SE3       30.54F

$$

VAZ055>057-231600-
NORTH AND CENTRAL PIEDMONT

CITY           SKY/WX    TMP DP  RH WIND       PRES   REMARKS
FREDERICKSBRG* CLOUDY    43  43 100 E3        30.55F
STAFFORD*      CLOUDY    43  43 100 CALM      30.60F

$$

NCZ024-NYZ072-PAZ021-071-VAZ022-071-231600-
OTHER REGIONAL OBSERVATIONS

CITY           SKY/WX    TMP DP  RH WIND       PRES   REMARKS
PHILADELPHIA   LGT RAIN  38  37  97 E7        30.60F WCI  33
PITTSBURGH     LGT RAIN  47  46  97 E6        30.25F
ROANOKE        CLOUDY    46  44  93 SE10      30.52F
RICHMOND       CLOUDY    44  42  93 N7        30.55F
RALEIGH        FOG       53  52  96 NE7       30.50F VSB 1

$$

ANZ530>537-231600-
MARINE OBSERVATIONS

STATION/POSITION TIME  TEMP    WIND        PRES
                       AIR SEA DIR/SP/G
                 (UTC) (F)     (DEG/KT/KT) (MB)
THOMAS PT LIGHT  1500   40 42   30/  4/  4   N/A
BALT KEY BRIDGE  1448   40      80/  6/  7 1035.6F
COVE POINT       1448   40      40/  3/  5 1035.5F
LEWISETTA        1448   42 47   50/  4/  6 1034.8F
SOLOMONS ISLAND  1448   42 43   60/  3/  4 1034.6F
PINEY POINT      1448           90/  5/  6   N/A

$$




USA.gov is the U.S. government's official web portal to all federal, state and local government web resources and services.